Weather History for KFOT - November, 2012

Change the Weather History Date:

Sunday, November 25, 2012

  Actual Average (KEKA) Record (KEKA)
Temperature  
Mean Temperature 52 °F 49 °F  
Max Temperature 53 °F 57 °F 70 °F (1977)
Min Temperature 50 °F 42 °F 30 °F (2010)
Degree Days  
Heating Degree Days 14 16  
Month to date heating degree days 347  
Since 1 July heating degree days 1341  
Cooling Degree Days 0 0  
Month to date cooling degree days 0  
Year to date cooling degree days 0  
Growing Degree Days 2 (Base 50)    
Moisture  
Dew Point 52 °F    
Average Humidity 100    
Maximum Humidity 100    
Minimum Humidity 100    
Precipitation  
Precipitation 0.01 in 0.23 in 1.56 in (1916)
Month to date precipitation 4.45  
Year to date precipitation 31.05  
Since 1 July precipitation 7.77  
Snow  
Snow - 0.00 in 0.00 in (2002)
Month to date snowfall 0.0  
Since 1 July snowfall 0.0  
Since 1 September snowfall 0.0  
Snow Depth -    
Sea Level Pressure  
Sea Level Pressure 30.05 in    
Wind  
Wind Speed 4 mph ()    
Max Wind Speed 8 mph    
Max Gust Speed -    
Visibility 5.0 miles    
Events      
T = Trace of Precipitation, MM = Missing Value Source: Averaged Metar Reports

Daily Weather History Graph

Daily Weather History Graph

Search for Another Location

Airport or City:

Trip Planner

Search our weather history database for the weather conditions in past years. The results will help you decide how hot, cold, wet, or windy it might be!

Date:

Astronomy

Nov. 25, 2012 Rise Set
Actual Time 7:15 AM PST 4:52 PM PST
Civil Twilight 6:45 AM PST 5:22 PM PST
Nautical Twilight 6:11 AM PST 5:55 PM PST
Astronomical Twilight 5:38 AM PST 6:28 PM PST
Moon 3:12 PM PST (11/25) 4:34 AM PST (11/25)
Length of Visible Light 10h 37m
Length of Day
9h 37m
Waxing Gibbous, 93% of the Moon is Illuminated
Nov 25
Waxing Gibbous
Nov 28
Full
Dec 6
Last Quarter
Dec 13
New
Dec 19
First Quarter

Hourly Weather History & Observations

Time (PST) Temp. Dew Point Humidity Pressure Visibility Wind Dir Wind Speed Gust Speed Precip Events Conditions
12:15 AM 53.6 °F 53.6 °F 100% 30.13 in 0.2 mi WNW 6.9 mph - N/A   Overcast
12:35 AM 53.6 °F 53.6 °F 100% 30.13 in 0.2 mi WNW 8.1 mph - N/A   Overcast
12:55 AM 53.6 °F 53.6 °F 100% 30.13 in 0.2 mi WNW 8.1 mph - N/A   Overcast
1:15 AM 53.6 °F 53.6 °F 100% 30.12 in 0.2 mi WNW 8.1 mph - N/A   Overcast
1:35 AM 51.8 °F 51.8 °F 100% 30.12 in 0.2 mi WNW 6.9 mph - N/A   Overcast
1:55 AM 51.8 °F 51.8 °F 100% 30.12 in 0.2 mi WNW 5.8 mph - N/A   Overcast
2:15 AM 51.8 °F 51.8 °F 100% 30.12 in 0.2 mi WNW 6.9 mph - N/A   Overcast
2:35 AM 51.8 °F 51.8 °F 100% 30.12 in 0.2 mi WNW 5.8 mph - N/A   Overcast
2:55 AM 51.8 °F 51.8 °F 100% 30.11 in 0.2 mi NW 5.8 mph - N/A   Overcast
3:35 AM 51.8 °F 51.8 °F 100% 30.10 in 0.2 mi WNW 3.5 mph - N/A   Overcast
3:55 AM 53.6 °F 53.6 °F 100% 30.10 in 0.2 mi NW 5.8 mph - 0.01 in   Overcast
4:15 AM 51.8 °F 51.8 °F 100% 30.10 in 0.5 mi Calm Calm - N/A   Overcast
4:35 AM 51.8 °F 51.8 °F 100% 30.10 in 0.2 mi WNW 6.9 mph - N/A   Overcast
4:55 AM 51.8 °F 51.8 °F 100% 30.10 in 0.2 mi NW 8.1 mph - N/A   Overcast
5:15 AM 51.8 °F 51.8 °F 100% 30.10 in 0.2 mi NW 6.9 mph - N/A   Overcast
5:35 AM 51.8 °F 51.8 °F 100% 30.10 in 0.2 mi NW 4.6 mph - N/A   Overcast
5:55 AM 51.8 °F 51.8 °F 100% 30.09 in 0.2 mi WNW 4.6 mph - N/A   Overcast
6:15 AM 51.8 °F 51.8 °F 100% 30.09 in 0.2 mi WNW 5.8 mph - N/A   Overcast
6:35 AM 51.8 °F 51.8 °F 100% 30.09 in 0.2 mi WNW 4.6 mph - N/A   Overcast
6:55 AM 50.0 °F 50.0 °F 100% 30.09 in 0.2 mi WNW 5.8 mph - N/A   Overcast
7:15 AM 50.0 °F 50.0 °F 100% 30.09 in 0.2 mi WNW 5.8 mph - N/A   Overcast
7:35 AM 50.0 °F 50.0 °F 100% 30.09 in 0.2 mi WNW 6.9 mph - N/A   Overcast
7:55 AM 50.0 °F 50.0 °F 100% 30.09 in 0.5 mi WNW 8.1 mph - N/A   Overcast
8:15 AM 50.0 °F 50.0 °F 100% 30.09 in 0.5 mi WNW 6.9 mph - N/A   Overcast
8:35 AM 50.0 °F 50.0 °F 100% 30.10 in 0.2 mi West 5.8 mph - N/A   Overcast
8:55 AM 50.0 °F 50.0 °F 100% 30.10 in 1.8 mi West 5.8 mph - N/A   Overcast
9:15 AM 50.0 °F 50.0 °F 100% 30.10 in 5.0 mi Calm Calm - N/A   Overcast
9:35 AM 50.0 °F 50.0 °F 100% 30.10 in 4.0 mi West 4.6 mph - N/A   Overcast
9:55 AM 51.8 °F 51.8 °F 100% 30.09 in 2.5 mi WNW 5.8 mph - N/A   Overcast
10:15 AM 51.8 °F 51.8 °F 100% 30.09 in 3.0 mi West 4.6 mph - N/A   Overcast
10:35 AM 51.8 °F 51.8 °F 100% 30.08 in 3.0 mi West 4.6 mph - N/A   Overcast
10:55 AM 53.6 °F 53.6 °F 100% 30.08 in 7.0 mi Calm Calm - N/A   Overcast
11:15 AM 53.6 °F 53.6 °F 100% 30.07 in 10.0 mi Calm Calm - N/A   Overcast
11:35 AM 53.6 °F 53.6 °F 100% 30.06 in 10.0 mi Calm Calm - N/A   Overcast
11:55 AM 53.6 °F 53.6 °F 100% 30.06 in 10.0 mi Calm Calm - N/A   Overcast
12:15 PM 53.6 °F 53.6 °F 100% 30.05 in 10.0 mi Calm Calm - N/A   Overcast
12:35 PM 53.6 °F 53.6 °F 100% 30.04 in 10.0 mi Calm Calm - N/A   Overcast
12:55 PM 53.6 °F 53.6 °F 100% 30.04 in 10.0 mi NW 3.5 mph - N/A   Overcast
1:15 PM 53.6 °F 53.6 °F 100% 30.03 in 10.0 mi WNW 5.8 mph - N/A   Overcast
1:35 PM 53.6 °F 53.6 °F 100% 30.03 in 10.0 mi Calm Calm - N/A   Overcast
1:55 PM 53.6 °F 53.6 °F 100% 30.02 in 10.0 mi NW 3.5 mph - N/A   Overcast
2:15 PM 53.6 °F 53.6 °F 100% 30.02 in 10.0 mi WNW 3.5 mph - N/A   Overcast
2:35 PM 53.6 °F 53.6 °F 100% 30.02 in 10.0 mi WNW 4.6 mph - N/A   Overcast
2:55 PM 53.6 °F 53.6 °F 100% 30.02 in 10.0 mi NNW 4.6 mph - N/A   Overcast
3:15 PM 53.6 °F 53.6 °F 100% 30.02 in 10.0 mi NNW 4.6 mph - N/A   Overcast
3:35 PM 53.6 °F 53.6 °F 100% 30.01 in 10.0 mi NNW 4.6 mph - N/A   Overcast
3:55 PM 53.6 °F 53.6 °F 100% 30.01 in 10.0 mi Calm Calm - N/A   Overcast
4:15 PM 53.6 °F 53.6 °F 100% 30.00 in 10.0 mi Calm Calm - N/A   Overcast
4:35 PM 53.6 °F 53.6 °F 100% 30.00 in 10.0 mi NW 3.5 mph - N/A   Overcast
4:55 PM 51.8 °F 51.8 °F 100% 30.00 in 5.0 mi Calm Calm - N/A   Overcast
5:15 PM 51.8 °F 51.8 °F 100% 29.99 in 4.0 mi Calm Calm - N/A   Overcast
5:35 PM 51.8 °F 51.8 °F 100% 29.99 in 3.0 mi Calm Calm - N/A   Overcast
5:55 PM 50.0 °F 50.0 °F 100% 29.99 in 3.0 mi Calm Calm - N/A   Overcast
6:15 PM 50.0 °F 50.0 °F 100% 29.99 in 2.5 mi Calm Calm - N/A   Overcast
6:35 PM 50.0 °F 50.0 °F 100% 29.98 in 3.0 mi Calm Calm - N/A   Overcast
6:55 PM 50.0 °F 50.0 °F 100% 29.98 in 4.0 mi Calm Calm - N/A   Overcast
7:15 PM 50.0 °F 50.0 °F 100% 29.98 in 3.0 mi Calm Calm - N/A   Overcast
7:35 PM 50.0 °F 50.0 °F 100% 29.99 in 7.0 mi Calm Calm - N/A   Overcast
7:55 PM 50.0 °F 50.0 °F 100% 29.99 in 6.0 mi Calm Calm - N/A   Overcast
8:15 PM 51.8 °F 51.8 °F 100% 29.99 in 9.0 mi Calm Calm - N/A   Overcast
8:35 PM 51.8 °F 51.8 °F 100% 29.98 in 10.0 mi Calm Calm - N/A   Overcast
8:55 PM 51.8 °F 51.8 °F 100% 29.98 in 9.0 mi Calm Calm - N/A   Overcast
9:15 PM 50.0 °F 50.0 °F 100% 29.98 in 7.0 mi Calm Calm - N/A   Overcast
9:35 PM 50.0 °F 50.0 °F 100% 29.99 in 9.0 mi Calm Calm - N/A   Overcast
9:55 PM 50.0 °F 50.0 °F 100% 29.99 in 10.0 mi Calm Calm - N/A   Overcast
10:15 PM 50.0 °F 50.0 °F 100% 29.99 in 9.0 mi Calm Calm - N/A   Overcast
10:35 PM 50.0 °F 50.0 °F 100% 29.99 in 10.0 mi Calm Calm - N/A   Overcast
10:55 PM 50.0 °F 50.0 °F 100% 29.99 in 10.0 mi Calm Calm - N/A   Overcast
11:15 PM 50.0 °F 50.0 °F 100% 29.99 in 10.0 mi Calm Calm - N/A   Overcast
11:35 PM 50.0 °F 50.0 °F 100% 30.00 in 10.0 mi Calm Calm - N/A   Overcast
11:55 PM 50.0 °F 50.0 °F 100% 30.01 in 10.0 mi Calm Calm - N/A   Overcast